Regional Weather Roundup
Issued by NWS Charleston, SC

Current Version | Previous Version | Graphics & Text | Print | Product List | Glossary On
Versions: 1 2 3 4 5 6 7 8 9 10 11 12 13 14 15 16 17 18 19 20 21 22 23 24 25 26 27 28 29 30 31 32 33 34 35 36 37 38 39 40 41 42 43 44 45 46 47 48 49 50
000 ASUS42 KCHS 250510 RWRCHS REGIONAL WEATHER ROUNDUP NATIONAL WEATHER SERVICE CHARLESTON SC 100 AM EDT FRI JUL 25 2014 NOTE: "FAIR" INDICATES FEW OR NO CLOUDS BELOW 12,000 FEET WITH NO SIGNIFICANT WEATHER AND/OR OBSTRUCTIONS TO VISIBILITY. NOT ALL STATIONS ARE QUALITY CONTROLLED BY THE NATIONAL WEATHER SERVICE. USE DATA WITH CAUTION...ESPECIALLY DEWPOINT OBSERVATIONS. SCZ027-030-031-034>040-042>050-250600- ...SOUTH CAROLINA... CITY SKY/WX TMP DP RH WIND PRES REMARKS N CHARLESTON PTCLDY 83 78 85 SW7 29.95S HX 93 WATERFRONT PRK N/A 84 N/A N/A SW8 N/A FORT JOHNSON NOT AVBL MOUNT PLEASANT FAIR 82 79 89 SW6 29.95S HX 93 JOHNS ISLAND CLEAR 84 75 74 SW9G17 29.96S HX 92 PINOPOLIS N/A 82 73 74 SW5 29.86R MONCKS CORNER N/A 81 79 94 CALM 29.95R SUMMERVILLE NOT AVBL BEAUFORT MCAS MOCLDY 83 77 82 W10 29.96S HX 92 BEAUFORT ARPT FAIR 82 77 83 SW8 29.96S HX 91 HILTON HEAD IS MOCLDY 82 75 78 SW7 29.98S GEORGETOWN NOT AVBL WALTERBORO CLEAR 79 77 94 S3 29.96S ORANGEBURG CLEAR 78 72 81 CALM 29.95R BARNWELL FAIR 79 72 78 CALM 29.96R AIKEN FAIR 75 75 100 CALM 30.00R MANNING FAIR 79 N/A N/A CALM 29.94S KINGSTREE NOT AVBL COLUMBIA MOCLDY 80 71 74 W5 29.94R SUMTER PTCLDY 77 73 87 W2 29.93R FLORENCE PTCLDY 75 73 93 NW3 29.94R MYRTLE BEACH CLOUDY 75 70 83 W3 29.94F N MYRTLE BEACH LGT RAIN 74 69 85 W6 29.93S $$ GAZ063-065-086>088-099>101-113>116-118-119-134-136>141-150-250600- ...GEORGIA... CITY SKY/WX TMP DP RH WIND PRES REMARKS SAVANNAH ARPT CLEAR 80 71 74 W3 29.97F HUNTER AAF PTCLDY 81 72 75 SW6 29.96R FORT STEWART CLEAR 80 72 75 W8 29.97S STATESBORO NOT AVBL SYLVANIA PTCLDY 80 75 84 SW3 29.98S CLAXTON FAIR 79 77 94 CALM 29.98S THOMSON PTCLDY 75 75 100 CALM 30.01R AUGUSTA-BUSH MOCLDY 76 72 87 CALM 29.95R AUGUSTA-DANIEL PTCLDY 80 72 76 CALM 29.97R SWAINSBORO FAIR 81 75 83 SW6 29.99R VIDALIA N/A 79 73 83 W6 30.00R ALMA CLEAR 77 73 87 SW5 30.00R WAYCROSS CLEAR 79 77 94 W5 29.99F JESUP NOT AVBL BRUNSWICK PTCLDY 81 72 74 CALM 29.99F SAINT SIMONS PTCLDY 80 72 76 SW8 29.99S $$ SCZ027-028-034-036>038-045-046-048>050-GAZ119-141-250600- ...LAKE AND SUPPLEMENTAL COASTAL OBSERVATIONS... STATION/POSITION TIME TEMP WIND PRES WAVE SWELL AIR SEA DIR/SP/G HT/PER HT/PER/DIR (UTC) (F) (DEG/KT/KT) (MB) (FT/S) (FT/S/D) UPR LAKE MARION NOT AVBL WINYAH BAY 0400 82 280/ 6 1013.0S LAKE MURRAY 0400 81 260/ 4/ 6 1013.5R ACE BASIN NERRS 0400 83 CALM 1014.0S FORT PULASKI 0500 82 240/ 6/ 9 1014.9F SAPELO ISLAND 0400 81 200/ 7 1016.0S $$ ANZ835-935-AMZ111-154-330-350-352-354-374-450-454-472-250600- ...C-MAN AND BUOY OBSERVATIONS... STATION/POSITION TIME TEMP WIND PRES WAVE SWELL AIR SEA DIR/SP/G HT/PER HT/PER/DIR (UTC) (F) (DEG/KT/KT) (MB) (FT/S) (FT/S/D) FOLLY BEACH CMAN 0400 83 220/ 13/ 18 1014.6R BUOY 41004 0500 83 83 220/ 17/ 19 1013.6R 4/ 5 2/17 BUOY 41008 0500 83 85 240/ 12/ 14 1015.1F 3/ 5 2/130/ 7 5E ST. MARYS GA 0500 85 N/A 3/ 5 FRYING PAN BUOY NOT AVBL BUOY 41025 0500 VRB 16/ 17 1012.7R 4/ 7 2/310/13 CAPE LOOKOUT NC 0400 74 290/ 15/ 17 1013.0R BUOY 41002 0425 82 82 230/ 19/ 23 1016.4F 5/ 7 2/110/ 9 BUOY 41010 0400 83 83 200/ 14/ 16 1018.1S BUOY 41012 NOT AVBL ST AUGUSTINE FL 0500 80 240/ 4/ 5 1017.3F CAPERS NEARSHORE 0400 84 250/ 19/ 21 N/A FRIPP NEARSHORE NOT AVBL $$

USA.gov is the U.S. government's official web portal to all federal, state and local government web resources and services.